Location: Crab Orchard
(37.7292°N, 88.8042°W)
Time: 11:21:31
(UTC+00:00)

Cosmos 1500 - Pass Details

Date: 08 December 2019
Orbit: 499 x 521 km, 82.5° (Epoch: 21 January)

Event Time Altitude Azimuth Distance (km) Brightness Sun altitude
Rises 23:07:20 0° 0° (N) 2,614 6.5 -6.3°
Reaches altitude 10° 23:09:34 10° 8° (N) 1,721 5.5 -6.7°
Maximum altitude 23:13:08 41° 80° (E) 738 3.5 -7.4°
Drops below altitude 10° 23:16:41 10° 151° (SSE) 1,700 5.8 -8.0°
Sets 23:18:51 0° 159° (SSE) 2,576 6.8 -8.4°
